Theta_e
350 351 349 348 348 347 347 346 346 347 348 349 349 348 348 348 349 349 349 348 347 348 348 349 349 350 351 352 353 355 355 356 357 356 354 354 356 357 358 357 358 359
350 350 350 349 349 348 348 346 346 346 347 348 348 348 348 348 348 348 349 348 347 348 348 349 349 350 351 352 352 353 355 355 355 355 353 353 355 356 357 358 358 358
350 350 350 349 349 349 348 348 347 346 347 347 347 348 348 347 348 348 348 348 348 348 348 348 349 349 350 352 352 352 354 353 354 355 353 353 354 355 357 358 358 358
350 350 350 350 349 349 349 348 348 347 346 347 347 347 348 348 347 347 347 347 348 348 348 347 348 349 350 352 352 353 353 352 353 353 352 352 352 353 356 357 357 358
350 350 350 349 350 349 349 349 348 347 346 346 347 347 347 347 347 347 347 347 347 347 347 347 347 347 349 351 352 352 353 354 354 352 351 352 352 353 356 355 355 355
350 350 350 350 349 349 349 349 348 347 346 346 346 346 347 347 347 347 346 346 346 346 346 347 347 346 347 348 350 352 353 355 355 353 352 353 355 356 356 355 354 355
350 350 349 349 349 349 349 348 348 347 346 345 345 345 346 346 346 346 346 346 346 345 345 345 347 347 346 346 347 349 351 353 353 352 352 354 355 356 356 355 355 355
350 350 349 349 349 349 348 348 347 346 345 345 345 344 344 344 345 345 345 345 345 345 344 344 344 346 346 345 346 347 348 351 352 351 351 353 354 354 354 354 353 354
351 350 350 349 350 349 349 348 347 346 345 345 344 344 343 342 342 343 344 344 343 343 343 343 343 344 344 344 344 344 346 348 350 350 350 352 353 352 352 352 352 353
351 351 350 350 350 349 349 349 347 347 346 344 344 345 344 342 340 341 342 342 341 341 342 342 342 342 342 341 341 342 344 345 347 347 347 349 351 351 352 352 352 353
351 351 351 350 350 349 349 349 348 347 346 344 345 345 344 342 340 339 340 340 339 339 340 340 340 340 341 340 339 339 341 343 344 344 344 345 346 347 347 348 349 351
352 351 351 350 350 349 349 349 348 348 347 345 344 344 344 343 342 339 339 338 338 339 339 339 339 339 340 339 339 340 340 341 343 343 343 343 343 344 345 345 345 345
351 351 351 351 350 349 349 349 349 348 347 346 345 344 344 344 343 341 338 337 337 338 338 339 339 339 339 339 339 340 340 340 342 343 343 343 342 344 347 348 347 346
351 351 351 351 350 350 349 349 348 348 348 347 346 345 345 344 344 343 340 338 338 338 337 338 339 340 340 339 339 339 340 340 341 342 343 345 344 343 346 348 349 349
351 351 351 351 351 350 349 349 348 348 347 347 347 346 346 345 344 344 343 342 340 340 338 339 340 340 340 339 339 339 339 340 341 341 343 345 344 345 346 347 347 349
349 350 350 351 350 349 349 349 349 349 348 347 347 346 346 345 344 345 344 344 342 341 341 341 341 341 340 338 338 339 340 340 341 341 342 343 343 343 346 347 347 349
348 349 349 350 349 349 349 349 349 350 348 347 347 346 345 345 345 345 345 344 344 343 343 343 342 341 339 337 338 339 340 341 342 341 341 341 342 342 344 346 347 349
349 349 349 349 349 348 349 348 349 350 349 349 347 346 346 345 345 345 345 345 345 345 345 344 343 341 338 337 338 338 340 341 342 344 344 343 343 343 343 345 347 349
351 352 351 350 350 349 349 349 349 349 350 350 349 348 348 347 346 346 346 345 346 346 346 345 344 342 340 339 339 338 339 340 341 344 346 346 345 345 344 345 346 347
353 353 353 353 352 352 351 351 350 350 350 350 351 351 349 348 347 347 347 346 346 346 346 346 346 345 343 342 341 340 340 340 341 343 345 348 347 346 346 346 345 345
353 352 352 353 352 352 352 352 352 352 352 352 351 352 351 350 349 349 349 348 347 347 347 347 346 346 345 344 344 343 342 341 341 342 345 348 349 347 345 345 345 345
353 351 351 351 351 351 352 351 351 352 353 353 353 353 353 352 352 351 351 350 349 349 348 348 348 347 346 346 345 344 344 343 342 343 344 346 349 349 347 345 345 346
352 351 352 351 351 351 351 351 351 352 352 353 354 354 353 354 354 353 352 352 351 351 350 350 350 349 348 348 347 346 345 344 344 344 344 345 347 348 348 347 346 346
350 350 351 352 352 352 351 351 352 353 352 353 354 355 354 355 355 355 355 354 354 353 352 352 352 351 350 350 349 348 347 345 345 345 345 346 346 347 349 349 347 347
349 351 352 353 352 353 352 352 352 352 353 354 354 355 355 356 356 356 356 356 356 355 354 354 354 353 353 352 351 350 349 347 347 346 346 347 348 349 350 350 349 348
345 349 352 353 354 354 354 353 353 353 354 355 356 357 357 357 358 358 358 358 357 357 356 356 356 355 355 354 353 352 352 350 348 348 348 349 350 350 352 352 351 350
Wind_Speed
33 32 32 31 30 28 27 26 25 24 23 22 20 19 19 18 17 16 15 16 16 16 15 14 13 13 12 11 10 10 9 9 8 8 8 7 7 6 6 6 6 5
35 34 33 32 31 30 28 27 27 26 26 24 22 20 19 18 17 16 16 15 15 16 16 15 14 14 13 13 12 11 11 11 10 10 10 9 8 7 6 6 6 6
35 35 34 33 32 32 30 29 28 28 27 26 25 22 20 19 18 17 16 16 16 16 17 17 16 15 15 14 14 13 13 12 12 11 12 11 10 9 7 6 6 6
37 36 35 34 33 32 32 30 30 28 27 27 27 24 22 20 19 18 18 17 17 17 17 17 17 17 16 16 15 14 14 13 12 12 13 14 13 12 10 8 7 7
38 38 36 35 33 33 32 31 30 30 29 28 28 26 24 22 21 20 19 18 18 17 17 17 18 18 18 17 16 16 15 13 13 13 13 14 15 13 11 10 9 8
38 38 37 36 35 34 33 32 32 31 31 30 29 28 26 24 23 22 21 20 19 18 18 18 18 18 18 18 17 17 16 14 13 14 14 14 14 13 11 11 11 11
36 37 38 37 35 34 34 34 33 33 32 31 30 29 28 27 26 25 23 22 21 21 20 19 19 18 17 18 18 18 18 17 16 16 15 14 14 14 13 13 13 12
33 33 36 35 33 32 34 34 34 34 33 32 32 31 30 29 28 27 26 24 24 23 22 21 21 20 18 18 19 19 19 18 18 18 17 16 16 16 16 15 15 15
30 30 32 33 31 30 31 32 33 34 35 34 33 32 31 31 30 29 29 27 25 25 24 23 23 22 21 20 20 20 20 19 18 19 18 17 17 17 16 16 16 16
28 28 28 29 29 29 30 30 29 31 34 35 33 31 31 32 31 31 30 29 27 26 26 25 25 24 23 23 22 22 22 21 20 20 19 18 18 17 16 16 16 17
27 27 26 27 29 28 29 30 28 27 31 35 33 30 30 32 32 32 31 31 29 28 27 26 25 25 25 24 24 23 23 23 22 22 21 21 20 19 19 18 18 18
26 27 27 28 29 29 28 28 27 26 28 33 34 33 31 31 32 33 33 33 32 30 29 28 27 26 26 25 25 24 24 24 24 24 24 23 23 22 22 21 21 21
27 28 28 28 29 30 28 26 27 27 26 29 33 34 33 31 30 33 35 35 34 33 32 31 30 29 28 28 27 26 26 26 25 25 25 25 25 24 23 22 22 22
29 28 28 29 30 30 30 27 26 26 27 27 29 32 32 31 30 32 35 36 36 35 35 34 33 32 31 30 30 29 28 28 27 27 26 26 26 26 24 23 23 22
30 27 26 28 30 31 32 30 26 26 27 28 29 31 30 30 30 29 31 35 37 37 37 36 35 35 34 34 33 32 31 30 29 29 28 27 27 26 25 25 25 23
34 31 28 27 30 33 35 33 29 26 27 28 31 31 30 29 30 28 28 30 34 36 37 37 37 37 38 37 36 34 33 32 31 31 30 29 29 28 26 25 25 24
36 35 33 32 34 36 36 35 32 27 26 29 31 32 32 32 31 30 29 27 29 32 34 35 37 39 39 39 38 36 35 33 33 33 32 31 30 29 28 26 25 24
33 32 35 35 35 36 36 36 34 29 27 30 32 33 34 33 31 31 31 29 27 28 29 31 35 38 40 39 38 38 36 34 33 31 30 30 30 29 29 27 25 23
28 28 30 32 33 35 35 33 32 31 31 30 30 30 30 31 31 30 32 32 29 27 28 29 32 36 39 39 38 38 36 35 34 30 27 27 28 29 29 28 27 25
22 21 21 22 24 25 25 27 29 32 32 28 25 24 26 30 32 29 30 33 32 30 30 29 30 34 37 38 38 37 36 35 35 32 28 26 28 29 29 28 29 29
17 21 21 20 22 22 22 24 26 28 29 26 23 23 25 29 31 28 28 32 33 32 30 29 31 34 36 37 37 37 35 35 35 34 30 27 28 31 32 31 30 30
13 20 24 25 26 27 27 29 29 29 29 27 24 23 23 25 28 28 28 29 31 30 29 29 32 34 35 37 37 36 34 34 34 35 34 30 28 30 33 34 33 31
13 18 22 25 27 29 31 34 35 35 34 31 27 25 25 25 25 27 28 28 28 29 29 31 33 34 36 37 37 35 34 34 35 36 36 35 33 33 33 34 34 34
11 14 16 19 24 28 31 34 34 33 34 33 30 28 29 28 26 26 26 27 27 28 30 31 32 34 36 37 37 36 34 35 36 36 36 36 36 35 35 35 35 35
6 9 11 14 21 26 29 32 33 32 31 31 29 28 30 29 27 25 25 26 27 28 30 32 31 31 32 35 37 36 35 35 36 35 35 35 34 32 31 33 36 37
6 6 9 12 17 21 25 28 29 29 29 29 29 29 29 28 27 26 25 26 26 26 28 30 31 30 31 34 36 35 35 35 36 35 36 35 34 31 28 28 32 36
Wind_Direction
218 219 220 222 225 227 229 231 233 235 237 240 241 240 239 239 239 238 238 238 236 235 235 233 232 233 232 233 233 236 240 243 249 255 255 259 271 284 281 266 256 257
218 220 221 222 226 229 231 233 234 236 239 241 244 244 244 243 243 243 244 245 243 241 240 238 236 235 233 233 235 237 241 244 247 252 255 259 270 280 282 268 253 254
217 219 221 223 225 228 231 233 234 236 238 241 243 245 246 246 246 248 249 250 249 246 245 243 241 239 235 235 236 238 242 246 248 250 253 257 263 271 276 269 254 249
217 219 221 222 224 227 229 231 233 235 235 238 241 243 245 247 248 250 252 252 251 250 250 248 245 242 239 238 238 240 243 248 251 251 255 257 259 264 268 268 263 250
218 220 221 221 223 226 229 231 232 233 234 236 239 241 243 246 247 249 252 253 252 253 253 251 248 246 243 242 241 242 245 248 251 254 257 259 259 260 261 265 268 261
218 220 221 222 224 226 228 230 232 233 234 235 237 239 241 243 245 247 250 252 253 255 254 252 250 247 246 245 243 244 246 246 248 254 259 260 258 255 256 260 265 265
218 220 222 222 223 225 227 229 232 234 235 235 236 238 240 241 243 245 248 250 252 255 255 254 253 251 249 248 247 247 249 249 250 255 256 256 255 254 256 259 261 263
216 218 221 221 220 222 225 227 231 234 235 235 235 237 239 240 242 244 246 248 250 252 254 255 256 256 253 252 251 251 252 251 251 254 253 252 252 254 257 260 263 265
213 214 218 219 217 218 222 224 227 232 234 235 235 236 238 239 241 242 244 246 248 249 251 253 255 257 256 256 256 255 255 253 252 253 253 251 250 252 255 258 262 265
212 213 214 215 215 217 220 221 222 227 232 235 234 233 236 239 239 239 241 244 245 246 247 250 253 255 257 259 259 258 257 257 256 257 257 255 253 253 254 256 259 262
211 212 212 213 215 217 219 220 219 221 229 234 233 231 234 238 238 238 238 240 241 243 245 247 250 253 255 258 259 259 258 257 258 260 261 261 261 261 261 261 262 262
211 212 213 214 215 217 219 219 217 217 224 231 233 231 232 235 237 237 237 237 239 241 243 245 247 250 252 255 257 258 258 258 258 260 262 264 264 265 265 265 266 267
211 212 213 214 216 218 219 218 218 218 219 226 231 231 231 231 233 236 237 238 239 241 243 245 246 247 249 252 253 254 256 258 258 258 261 263 265 266 265 264 265 266
212 213 214 215 217 219 220 218 217 218 218 222 226 228 229 229 229 233 237 238 239 241 243 245 246 247 248 249 251 252 253 255 257 258 258 260 264 266 266 264 264 264
213 212 213 216 218 221 223 221 218 219 220 222 225 227 228 228 228 229 233 237 239 240 243 244 245 247 248 248 249 250 251 252 254 256 256 257 260 264 265 265 265 263
219 217 216 217 220 224 227 225 221 220 221 222 226 228 228 228 228 227 228 234 237 240 242 242 243 246 248 249 249 250 250 250 251 254 255 256 258 261 261 263 264 264
222 221 221 222 225 227 228 228 225 221 221 225 228 230 230 230 230 229 229 230 233 237 239 240 242 245 248 249 250 250 249 249 250 253 254 255 256 257 259 260 260 261
220 220 222 224 227 228 228 229 228 223 224 228 229 230 231 230 229 229 231 230 229 231 233 235 240 246 249 249 250 250 249 247 248 249 251 252 253 254 256 257 257 256
220 220 222 224 226 227 228 227 227 227 228 229 229 229 229 229 228 228 231 231 228 229 230 232 238 245 249 249 249 250 249 247 246 246 246 247 249 251 252 254 255 255
221 221 223 227 229 230 231 229 228 230 231 230 229 226 224 228 228 226 228 231 231 230 232 234 237 243 248 249 250 250 249 247 245 244 244 244 246 249 251 252 254 256
216 219 220 225 231 232 235 235 235 236 236 232 229 226 225 229 230 227 227 231 233 232 233 236 239 243 246 248 250 250 248 247 245 243 242 243 245 249 251 252 254 255
216 224 222 221 223 223 225 228 231 235 238 237 235 234 232 232 231 229 228 230 232 231 231 235 240 243 244 246 249 250 247 245 244 244 243 242 244 248 251 253 254 253
228 235 232 227 224 222 222 224 225 227 231 233 234 237 238 235 231 230 230 231 231 230 229 234 239 242 244 245 248 248 244 242 242 243 243 243 245 247 250 252 254 253
237 244 243 237 232 228 227 228 228 227 227 227 229 234 238 238 235 234 233 231 231 230 230 234 239 242 244 246 247 245 241 240 240 241 242 244 246 248 249 250 253 253
258 245 240 238 236 232 231 231 233 233 232 229 228 231 235 237 236 236 235 234 233 233 234 236 239 242 244 246 246 244 240 239 239 238 239 241 243 245 246 248 251 253
303 252 228 228 233 233 234 234 233 235 236 234 231 232 234 235 234 234 236 236 236 235 236 237 238 240 242 245 246 244 240 238 236 234 236 239 240 241 241 243 248 252